Total_Precipitation_Accumulation
0.07 0.10 0.09 0.08 0.06 0.08 0.10 0.11 0.15 0.23 0.41 0.54 0.73 0.84 0.88 0.91 0.90 0.86 0.82 0.75 0.65 0.59 0.52 0.44 0.39 0.36 0.32 0.29 0.25 0.20 0.17 0.17 0.19 0.21 0.23 0.23 0.23 0.23 0.22 0.23 0.21 0.20 0.18 0.15
0.06 0.07 0.08 0.09 0.08 0.09 0.14 0.18 0.25 0.37 0.59 0.79 0.95 0.98 1.03 1.04 0.95 0.89 0.85 0.84 0.83 0.78 0.70 0.59 0.51 0.44 0.39 0.35 0.32 0.29 0.30 0.32 0.32 0.31 0.30 0.30 0.29 0.28 0.28 0.26 0.22 0.18 0.14 0.11
0.06 0.07 0.10 0.19 0.20 0.18 0.22 0.29 0.36 0.48 0.60 0.72 0.87 1.00 1.01 1.01 1.01 1.02 1.05 1.02 0.94 0.83 0.74 0.66 0.60 0.56 0.54 0.50 0.47 0.46 0.45 0.42 0.38 0.35 0.34 0.31 0.28 0.29 0.27 0.22 0.17 0.13 0.10 0.07
0.07 0.11 0.20 0.26 0.22 0.24 0.33 0.42 0.44 0.49 0.54 0.68 0.80 0.89 0.91 0.94 1.00 1.04 1.06 0.99 0.87 0.74 0.68 0.67 0.69 0.68 0.62 0.56 0.52 0.49 0.47 0.44 0.37 0.30 0.27 0.26 0.27 0.24 0.18 0.14 0.12 0.10 0.07 0.05
0.15 0.19 0.29 0.41 0.27 0.25 0.36 0.45 0.37 0.42 0.46 0.61 0.68 0.74 0.85 0.90 0.94 0.99 0.92 0.81 0.73 0.69 0.70 0.76 0.77 0.71 0.63 0.57 0.51 0.47 0.42 0.34 0.25 0.20 0.19 0.18 0.16 0.13 0.12 0.12 0.11 0.08 0.05 0.05
0.29 0.33 0.42 0.47 0.25 0.22 0.37 0.58 0.45 0.44 0.43 0.47 0.53 0.73 0.77 0.75 0.72 0.73 0.72 0.71 0.73 0.77 0.82 0.81 0.72 0.60 0.52 0.45 0.38 0.31 0.25 0.19 0.16 0.14 0.10 0.08 0.09 0.10 0.10 0.10 0.08 0.06 0.04 0.05
0.45 0.56 0.59 0.31 0.14 0.25 0.52 0.57 0.49 0.48 0.47 0.46 0.50 0.57 0.51 0.50 0.56 0.63 0.68 0.71 0.74 0.75 0.71 0.63 0.54 0.46 0.41 0.35 0.28 0.19 0.13 0.11 0.09 0.07 0.05 0.04 0.07 0.09 0.09 0.07 0.07 0.07 0.06 0.06
0.54 0.65 0.70 0.31 0.19 0.34 0.42 0.35 0.38 0.40 0.42 0.42 0.43 0.42 0.43 0.43 0.47 0.53 0.63 0.66 0.62 0.56 0.49 0.40 0.31 0.28 0.26 0.21 0.14 0.09 0.07 0.06 0.04 0.03 0.02 0.03 0.07 0.09 0.08 0.09 0.09 0.07 0.07 0.06
0.65 0.73 0.55 0.29 0.25 0.28 0.31 0.32 0.32 0.35 0.36 0.39 0.44 0.46 0.51 0.53 0.54 0.52 0.49 0.48 0.42 0.34 0.27 0.21 0.16 0.17 0.16 0.11 0.08 0.07 0.08 0.07 0.05 0.04 0.04 0.04 0.07 0.08 0.08 0.09 0.08 0.06 0.06 0.05
0.57 0.62 0.45 0.29 0.24 0.22 0.23 0.26 0.28 0.35 0.38 0.38 0.38 0.37 0.41 0.44 0.44 0.42 0.37 0.31 0.24 0.19 0.16 0.13 0.10 0.09 0.07 0.05 0.06 0.08 0.09 0.08 0.07 0.07 0.07 0.06 0.07 0.05 0.06 0.06 0.06 0.06 0.06 0.07
0.63 0.63 0.50 0.39 0.28 0.24 0.27 0.29 0.33 0.36 0.34 0.31 0.26 0.24 0.24 0.25 0.26 0.24 0.20 0.17 0.14 0.12 0.10 0.07 0.05 0.05 0.04 0.03 0.04 0.07 0.08 0.07 0.06 0.07 0.08 0.08 0.07 0.03 0.02 0.04 0.02 0.04 0.07 0.08
0.75 0.62 0.49 0.46 0.38 0.33 0.32 0.29 0.26 0.23 0.22 0.25 0.23 0.20 0.19 0.19 0.17 0.15 0.12 0.09 0.09 0.08 0.05 0.04 0.03 0.02 0.02 0.02 0.03 0.06 0.08 0.07 0.05 0.05 0.06 0.07 0.10 0.08 0.02 0.01 0.01 0.02 0.03 0.05
0.49 0.39 0.37 0.35 0.35 0.38 0.30 0.23 0.20 0.16 0.13 0.16 0.17 0.16 0.14 0.14 0.13 0.09 0.07 0.06 0.05 0.05 0.03 0.02 0.01 0.01 0.01 0.01 0.01 0.03 0.05 0.06 0.04 0.04 0.05 0.06 0.09 0.14 0.12 0.07 0.04 0.04 0.03 0.04
0.37 0.39 0.42 0.32 0.25 0.24 0.18 0.15 0.14 0.11 0.09 0.09 0.10 0.10 0.09 0.08 0.07 0.05 0.04 0.03 0.02 0.01 0.01 0.01 0.01 0.01 0.01 0.00 0.01 0.02 0.05 0.03 0.02 0.04 0.05 0.06 0.08 0.10 0.11 0.13 0.15 0.15 0.08 0.04
0.31 0.31 0.29 0.19 0.13 0.12 0.10 0.08 0.08 0.07 0.07 0.08 0.07 0.06 0.06 0.06 0.04 0.03 0.02 0.01 0.01 0.01 0.00 0.01 0.01 0.01 0.00 0.00 0.01 0.03 0.04 0.06 0.04 0.03 0.03 0.04 0.05 0.07 0.07 0.09 0.12 0.13 0.12 0.09
0.22 0.17 0.13 0.11 0.10 0.10 0.09 0.07 0.06 0.06 0.05 0.06 0.05 0.05 0.04 0.02 0.02 0.02 0.01 0.01 0.01 0.02 0.01 0.01 0.01 0.00 0.00 0.00 0.02 0.04 0.03 0.01 0.02 0.02 0.02 0.02 0.04 0.05 0.05 0.08 0.11 0.13 0.14 0.11
0.15 0.14 0.11 0.10 0.08 0.09 0.09 0.07 0.06 0.05 0.05 0.05 0.04 0.03 0.02 0.01 0.02 0.02 0.01 0.00 0.00 0.00 0.01 0.01 0.00 0.00 0.00 0.00 0.01 0.02 0.02 0.01 0.01 0.01 0.02 0.02 0.03 0.03 0.04 0.06 0.09 0.13 0.15 0.13
0.08 0.08 0.08 0.06 0.04 0.04 0.04 0.04 0.03 0.03 0.03 0.02 0.01 0.01 0.01 0.02 0.02 0.01 0.00 0.00 0.00 0.00 0.00 0.00 0.00 0.00 0.00 0.00 0.00 0.00 0.01 0.01 0.01 0.01 0.01 0.01 0.01 0.02 0.03 0.04 0.07 0.10 0.13 0.14
0.05 0.04 0.04 0.03 0.02 0.02 0.02 0.02 0.02 0.01 0.01 0.01 0.01 0.01 0.01 0.01 0.00 0.00 0.00 0.00 0.00 0.01 0.00 0.00 0.00 0.00 0.00 0.00 0.00 0.00 0.00 0.00 0.00 0.00 0.00 0.00 0.00 0.01 0.02 0.03 0.05 0.07 0.10 0.13
0.03 0.02 0.02 0.02 0.02 0.02 0.02 0.01 0.01 0.00 0.01 0.02 0.02 0.00 0.00 0.00 0.00 0.00 0.00 0.00 0.00 0.00 0.00 0.00 0.00 0.00 0.00 0.00 0.00 0.00 0.00 0.00 0.00 0.00 0.00 0.00 0.00 0.01 0.01 0.02 0.03 0.05 0.08 0.11
0.03 0.02 0.01 0.01 0.01 0.01 0.01 0.01 0.01 0.01 0.01 0.02 0.01 0.00 0.00 0.00 0.00 0.00 0.00 0.00 0.00 0.00 0.00 0.00 0.00 0.00 0.00 0.00 0.00 0.00 0.00 0.00 0.00 0.00 0.00 0.00 0.00 0.01 0.01 0.02 0.02 0.03 0.05 0.07
0.03 0.02 0.01 0.01 0.01 0.01 0.01 0.01 0.01 0.01 0.02 0.02 0.01 0.00 0.00 0.00 0.00 0.00 0.00 0.00 0.00 0.00 0.00 0.00 0.00 0.00 0.00 0.00 0.00 0.00 0.00 0.00 0.00 0.00 0.00 0.00 0.00 0.00 0.00 0.01 0.01 0.01 0.02 0.03
0.07 0.04 0.02 0.01 0.01 0.02 0.02 0.02 0.02 0.02 0.02 0.01 0.00 0.00 0.00 0.00 0.00 0.00 0.00 0.00 0.00 0.00 0.00 0.00 0.00 0.00 0.00 0.00 0.00 0.00 0.00 0.00 0.00 0.00 0.00 0.00 0.00 0.00 0.00 0.00 0.00 0.01 0.01 0.02
0.09 0.06 0.04 0.03 0.02 0.02 0.03 0.02 0.03 0.02 0.01 0.01 0.00 0.00 0.00 0.00 0.00 0.00 0.00 0.00 0.00 0.00 0.00 0.00 0.00 0.00 0.00 0.00 0.00 0.00 0.00 0.00 0.00 0.00 0.00 0.00 0.00 0.00 0.00 0.00 0.00 0.00 0.01 0.01
0.11 0.08 0.06 0.05 0.06 0.05 0.04 0.03 0.03 0.02 0.01 0.00 0.00 0.00 0.00 0.00 0.00 0.00 0.00 0.00 0.00 0.00 0.00 0.00 0.00 0.00 0.00 0.00 0.00 0.00 0.00 0.00 0.00 0.00 0.00 0.00 0.00 0.00 0.00 0.00 0.00 0.00 0.00 0.00
0.16 0.14 0.11 0.09 0.08 0.06 0.03 0.03 0.03 0.01 0.00 0.00 0.00 0.00 0.00 0.00 0.00 0.00 0.00 0.00 0.00 0.00 0.00 0.00 0.00 0.00 0.00 0.00 0.00 0.00 0.00 0.00 0.00 0.00 0.00 0.00 0.00 0.00 0.00 0.00 0.00 0.00 0.00 0.00
0.22 0.16 0.13 0.09 0.06 0.03 0.02 0.02 0.01 0.00 0.00 0.00 0.00 0.00 0.00 0.00 0.00 0.00 0.00 0.00 0.00 0.00 0.00 0.00 0.00 0.00 0.00 0.00 0.00 0.00 0.00 0.00 0.00 0.00 0.00 0.00 0.00 0.00 0.00 0.00 0.00 0.00 0.00 0.00